period_start,C,m1,H,J0,J1,J2,J3,J4,J5,JA,JB,JC,JD,JJ,JK,JN,#
2014-06-29 00:04:39,0.00,0.03,0.00,22.65,26.90,29.60,9.49,37.04,1009.16,2042.99,3500.90,3324.99,3620.77,500.05,493.78,8.53,0000 0000 0000 0000 000000
2014-06-29 00:09:40,0.01,0.03,0.00,22.69,26.90,29.57,9.38,37.12,1009.06,2042.99,3500.77,3324.96,3620.56,499.56,493.30,8.57,0000 0000 0000 0000 000000
2014-06-29 00:14:41,0.00,0.03,0.00,22.68,26.90,29.58,9.50,37.17,1008.97,2042.99,3500.48,3324.96,3620.36,500.16,493.85,8.61,0000 0000 0000 0000 000000
2014-06-29 00:19:42,0.00,0.03,0.00,22.66,26.90,29.58,9.48,37.79,1008.98,2042.99,3500.12,3324.92,3620.38,499.71,493.25,8.65,0000 0000 0000 0000 000000
2014-06-29 00:24:43,0.02,0.03,0.00,22.67,26.91,29.59,9.49,37.91,1009.13,2042.99,3500.04,3324.52,3620.10,499.91,493.45,8.69,0000 0000 0000 0000 000000
2014-06-29 00:29:44,0.01,0.03,0.00,22.67,26.92,29.58,9.53,37.63,1008.92,2042.99,3500.00,3324.20,3620.02,500.13,493.74,8.73,0000 0000 0000 0000 000000
2014-06-29 00:34:45,0.00,0.03,0.00,22.68,26.92,29.57,9.51,37.63,1008.88,2042.99,3499.99,3324.03,3620.00,499.82,493.52,8.78,0000 0000 0000 0000 000000
2014-06-29 00:39:46,0.00,0.03,0.00,22.65,26.92,29.55,9.54,37.50,1008.87,2042.99,3499.98,3324.01,3620.00,500.05,493.66,8.82,0000 0000 0000 0000 000000
2014-06-29 00:44:47,0.00,0.03,0.00,22.64,26.93,29.56,9.48,37.41,1008.93,2042.99,3499.89,3324.00,3620.00,499.63,493.39,8.86,0000 0000 0000 0000 000000
2014-06-29 00:49:48,0.00,0.03,0.00,22.64,26.95,29.55,9.53,37.37,1008.94,2042.99,3499.76,3324.00,3619.95,500.05,493.55,8.90,0000 0000 0000 0000 000000
2014-06-29 00:54:49,0.00,0.03,0.00,22.60,26.95,29.53,9.50,37.33,1008.92,2042.99,3499.68,3324.00,3619.94,499.68,493.17,8.94,0000 0000 0000 0000 000000
2014-06-29 00:59:50,0.01,0.03,0.00,22.63,26.95,29.54,9.49,37.36,1008.89,2042.98,3499.27,3324.00,3619.82,499.66,493.28,8.99,0000 0000 0000 0000 000000
2014-06-29 01:04:51,0.01,0.04,0.00,22.64,26.96,29.53,9.51,37.46,1008.84,2042.97,3499.12,3323.99,3619.16,500.27,493.64,9.03,0000 0000 0000 0000 000000
2014-06-29 01:09:52,0.00,0.04,0.00,22.66,26.97,29.52,9.48,37.55,1008.85,2042.95,3499.03,3323.98,3619.05,499.91,493.49,9.07,0000 0000 0000 0000 000000
2014-06-29 01:14:54,0.00,0.04,0.00,22.64,26.97,29.50,9.55,37.50,1008.83,2042.96,3499.01,3323.94,3619.02,499.85,493.37,9.11,0000 0000 0000 0000 000000
2014-06-29 01:19:55,-0.00,0.04,0.00,22.60,26.97,29.48,9.44,37.30,1008.89,2042.94,3499.00,3323.87,3619.00,499.84,493.42,9.15,0000 0000 0000 0000 000000
2014-06-29 01:24:56,0.00,0.04,0.00,22.59,26.99,29.49,9.50,37.32,1008.88,2042.94,3498.97,3323.73,3619.00,500.04,493.80,9.19,0000 0000 0000 0000 000000
2014-06-29 01:29:57,0.02,0.04,0.00,22.60,27.00,29.49,9.49,37.27,1008.85,2042.95,3498.94,3323.34,3618.99,499.40,492.90,9.24,0000 0000 0000 0000 000000
2014-06-29 01:34:58,0.00,0.04,0.00,22.61,27.00,29.49,9.48,37.31,1008.84,2042.92,3498.67,3323.07,3618.97,500.06,493.49,9.28,0000 0000 0000 0000 000000
2014-06-29 01:39:59,0.01,0.04,0.00,22.62,27.00,29.50,9.40,37.27,1008.82,2042.88,3498.17,3323.02,3618.94,499.82,493.39,9.32,0000 0000 0000 0000 000000
2014-06-29 01:44:59,-0.00,0.04,0.00,22.63,27.02,29.50,9.35,37.34,1008.82,2042.90,3498.05,3323.01,3618.85,499.42,492.97,9.36,0000 0000 0000 0000 000000
2014-06-29 01:50:00,-0.01,0.04,0.00,22.64,27.02,29.50,9.48,37.37,1008.81,2042.76,3498.00,3323.00,3618.42,500.01,493.47,9.40,0000 0000 0000 0000 000000
2014-06-29 01:55:02,0.01,0.04,0.00,22.63,27.02,29.50,9.51,37.35,1008.80,2042.71,3498.00,3323.00,3618.18,500.22,493.78,9.44,0000 0000 0000 0000 000000
2014-06-29 02:00:03,-0.02,0.04,0.00,22.62,27.04,29.50,9.51,37.47,1008.80,2042.58,3498.00,3323.00,3618.06,500.01,493.24,9.49,0000 0000 0000 0000 000000
2014-06-29 02:05:04,-0.04,0.04,0.00,22.63,27.05,29.51,9.44,37.33,1008.81,2042.24,3497.99,3322.97,3618.01,500.00,493.46,9.53,0000 0000 0000 0000 000000
2014-06-29 02:10:05,0.00,0.03,0.00,22.65,27.05,29.52,9.57,37.35,1008.80,2042.15,3497.96,3322.94,3618.00,499.64,493.41,9.57,0000 0000 0000 0000 000000
2014-06-29 02:15:06,-0.01,0.03,0.00,22.67,27.06,29.52,9.60,37.42,1008.80,2042.08,3497.90,3322.85,3618.00,500.40,493.86,9.61,0000 0000 0000 0000 000000
2014-06-29 02:20:07,0.02,0.03,0.00,22.68,27.07,29.51,9.36,37.17,1008.80,2042.04,3497.57,3322.45,3617.97,499.54,492.80,9.65,0000 0000 0000 0000 000000
2014-06-29 02:25:08,0.01,0.04,0.00,22.72,27.07,29.52,9.54,37.06,1008.80,2042.03,3497.21,3322.19,3617.94,500.06,493.28,9.70,0000 0000 0000 0000 000000
2014-06-29 02:30:09,0.00,0.04,0.00,22.73,27.08,29.52,9.50,37.27,1008.81,2042.04,3497.05,3322.10,3617.89,499.55,492.95,9.74,0000 0000 0000 0000 000000
2014-06-29 02:35:11,0.01,0.04,0.00,22.77,27.10,29.51,9.51,37.14,1008.80,2042.00,3497.02,3322.04,3617.44,499.93,493.11,9.78,0000 0000 0000 0000 000000
2014-06-29 02:40:12,0.00,0.04,0.00,22.81,27.10,29.52,9.42,37.30,1008.80,2042.00,3497.00,3322.01,3617.14,499.95,493.07,9.82,0000 0000 0000 0000 000000
2014-06-29 02:45:13,0.00,0.04,0.00,22.85,27.11,29.51,9.43,37.55,1008.80,2042.00,3497.00,3322.00,3617.01,499.65,492.76,9.86,0000 0000 0000 0000 000000
2014-06-29 02:50:15,0.00,0.04,0.00,22.88,27.12,29.52,9.43,37.34,1008.80,2042.00,3496.95,3321.99,3617.00,499.74,492.68,9.91,0000 0000 0000 0000 000000
2014-06-29 02:55:15,-0.00,0.04,0.00,22.91,27.14,29.52,9.44,37.24,1008.80,2042.00,3496.73,3321.98,3616.99,499.81,492.93,9.95,0000 0000 0000 0000 000000
2014-06-29 03:00:16,0.01,0.04,0.00,22.97,27.15,29.55,9.46,37.31,1008.77,2042.00,3496.55,3321.96,3616.98,500.02,492.97,9.99,0000 0000 0000 0000 000000
2014-06-29 03:05:18,0.01,0.04,0.00,23.00,27.16,29.56,9.41,37.30,1008.76,2042.00,3496.26,3321.79,3616.93,499.32,492.26,10.03,0000 0000 0000 0000 000000
2014-06-29 03:10:19,0.02,0.04,0.00,23.04,27.18,29.57,9.46,37.62,1008.78,2041.99,3496.02,3321.20,3616.42,500.08,492.72,10.07,0000 0000 0000 0000 000000
2014-06-29 03:15:20,0.00,0.04,0.00,23.08,27.20,29.59,9.47,37.83,1008.79,2041.99,3496.00,3321.07,3616.12,500.15,492.79,10.11,0000 0000 0000 0000 000000
2014-06-29 03:20:21,0.00,0.04,0.00,23.11,27.22,29.60,9.51,37.74,1008.70,2041.97,3496.00,3321.01,3616.02,500.09,492.96,10.16,0000 0000 0000 0000 000000
2014-06-29 03:25:22,-0.00,0.04,0.00,23.16,27.24,29.62,9.47,37.63,1008.45,2041.92,3495.99,3321.00,3616.00,499.76,492.34,10.20,0000 0000 0000 0000 000000
2014-06-29 03:30:23,-0.01,0.04,0.00,23.20,27.26,29.64,9.40,37.31,1008.36,2041.78,3495.61,3320.99,3615.96,499.61,491.95,10.24,0000 0000 0000 0000 000000
2014-06-29 03:35:24,-0.02,0.04,0.00,23.23,27.28,29.66,9.46,37.39,1008.33,2041.44,3495.07,3320.84,3615.60,499.73,492.11,10.28,0000 0000 0000 0000 000000
2014-06-29 03:40:25,0.00,0.04,0.00,23.27,27.30,29.68,9.44,37.41,1008.32,2041.27,3495.00,3320.29,3615.13,500.17,492.20,10.32,0000 0000 0000 0000 000000
2014-06-29 03:45:26,-0.01,0.04,0.00,23.30,27.32,29.71,9.52,37.42,1008.32,2041.06,3494.99,3320.03,3615.01,499.96,492.10,10.36,0000 0000 0000 0000 000000
2014-06-29 03:50:27,-0.00,0.04,0.00,23.35,27.35,29.73,9.43,37.57,1008.32,2041.01,3494.82,3320.00,3614.98,499.42,491.54,10.41,0000 0000 0000 0000 000000
2014-06-29 03:55:28,0.01,0.04,0.00,23.38,27.38,29.76,9.47,37.68,1008.32,2041.01,3494.26,3319.99,3614.73,500.41,492.44,10.45,0000 0000 0000 0000 000000
2014-06-29 04:00:29,0.01,0.04,0.00,23.44,27.40,29.79,9.47,37.52,1008.29,2041.00,3494.03,3319.89,3614.17,499.67,491.49,10.49,0000 0000 0000 0000 000000
2014-06-29 04:05:30,0.02,0.04,0.00,23.47,27.43,29.81,9.54,37.44,1008.16,2041.00,3493.98,3319.27,3614.00,500.38,492.21,10.53,0000 0000 0000 0000 000000
2014-06-29 04:10:31,0.00,0.04,0.00,23.49,27.46,29.84,9.47,37.40,1008.07,2040.98,3493.66,3319.00,3613.98,500.09,491.96,10.57,0000 0000 0000 0000 000000
2014-06-29 04:15:32,0.01,0.04,0.00,23.53,27.49,29.87,9.44,37.38,1007.90,2040.98,3493.41,3319.00,3613.77,500.04,491.77,10.62,0000 0000 0000 0000 000000
2014-06-29 04:20:33,0.01,0.04,0.00,23.58,27.51,29.90,9.45,37.38,1007.88,2040.92,3493.02,3318.96,3613.10,499.85,491.31,10.66,0000 0000 0000 0000 000000
2014-06-29 04:25:35,-0.02,0.04,0.00,23.62,27.55,29.93,9.40,37.33,1007.87,2040.60,3492.99,3318.36,3613.00,500.35,491.82,10.70,0000 0000 0000 0000 000000
2014-06-29 04:30:36,-0.02,0.04,0.00,23.64,27.58,29.96,9.49,37.34,1007.86,2040.18,3492.65,3318.02,3612.88,500.04,491.65,10.74,0000 0000 0000 0000 000000
2014-06-29 04:35:37,0.03,0.04,0.00,23.68,27.61,29.99,9.44,37.33,1007.86,2040.02,3492.05,3317.52,3612.19,499.93,490.97,10.78,0000 0000 0000 0000 000000
2014-06-29 04:40:39,0.01,0.04,0.00,23.72,27.64,30.03,9.54,37.37,1007.85,2040.01,3491.93,3317.01,3611.82,500.12,491.23,10.82,0000 0000 0000 0000 000000
2014-06-29 04:45:40,0.02,0.04,0.00,23.75,27.67,30.06,9.52,37.33,1007.85,2040.00,3491.43,3316.99,3611.15,499.82,490.91,10.87,0000 0000 0000 0000 000000
2014-06-29 04:50:41,0.00,0.04,0.00,23.79,27.70,30.09,9.43,37.28,1007.84,2040.00,3491.03,3316.94,3611.00,500.02,491.00,10.91,0000 0000 0000 0000 000000
2014-06-29 04:55:42,0.02,0.04,0.00,23.82,27.73,30.12,9.47,37.29,1007.87,2039.97,3490.98,3316.25,3610.92,500.12,491.26,10.95,0000 0000 0000 0000 000000
2014-06-29 05:00:43,0.02,0.04,0.00,23.86,27.77,30.15,9.39,37.32,1007.85,2039.93,3490.70,3316.01,3610.20,499.93,490.92,10.99,0000 0000 0000 0000 000000
2014-06-29 05:05:44,-0.03,0.04,0.00,23.89,27.80,30.17,9.38,37.38,1007.87,2039.63,3490.09,3315.91,3610.00,500.06,491.09,11.03,0000 0000 0000 0000 000000
2014-06-29 05:10:45,-0.02,0.04,0.00,23.92,27.83,30.21,9.45,37.24,1007.86,2039.12,3490.00,3315.41,3609.89,500.27,491.20,11.08,0000 0000 0000 0000 000000
2014-06-29 05:15:46,0.01,0.04,0.00,23.95,27.86,30.24,9.32,37.30,1007.83,2039.01,3489.86,3315.02,3609.12,499.56,490.63,11.12,0000 0000 0000 0000 000000
2014-06-29 05:20:47,0.01,0.04,0.00,23.98,27.90,30.27,9.43,37.21,1007.83,2039.00,3489.26,3314.99,3609.00,500.02,491.03,11.16,0000 0000 0000 0000 000000
2014-06-29 05:25:48,0.01,0.04,0.00,24.02,27.93,30.30,9.45,37.05,1007.84,2038.99,3489.00,3314.85,3608.92,499.82,490.65,11.20,0000 0000 0000 0000 000000
2014-06-29 05:30:49,0.02,0.04,0.00,24.06,27.96,30.33,9.42,37.07,1007.84,2038.97,3488.97,3314.36,3608.43,500.23,490.89,11.24,0000 0000 0000 0000 000000
2014-06-29 05:35:51,0.01,0.04,0.00,24.09,27.99,30.36,9.50,37.28,1007.83,2038.93,3488.76,3314.04,3608.03,500.03,490.61,11.28,0000 0000 0000 0000 000000
2014-06-29 05:40:51,-0.02,0.04,0.00,24.11,28.03,30.39,9.45,37.07,1007.84,2038.77,3488.22,3314.00,3608.00,499.94,490.78,11.33,0000 0000 0000 0000 000000
2014-06-29 05:45:52,-0.05,0.04,0.00,24.15,28.06,30.42,9.37,37.10,1007.85,2038.17,3488.02,3313.94,3607.79,500.38,490.86,11.37,0000 0000 0000 0000 000000
2014-06-29 05:50:54,0.03,0.04,0.00,24.20,28.09,30.45,9.59,37.21,1007.84,2038.05,3487.99,3313.41,3607.11,500.51,490.91,11.41,0000 0000 0000 0000 000000
2014-06-29 05:55:55,0.01,0.04,0.00,24.21,28.13,30.48,9.39,37.13,1007.85,2038.00,3487.47,3313.02,3607.00,499.54,490.05,11.45,0000 0000 0000 0000 000000
2014-06-29 06:00:56,0.01,0.04,0.00,24.24,28.16,30.51,9.40,37.04,1007.84,2038.00,3487.03,3313.00,3606.87,499.83,490.35,11.49,0000 0000 0000 0000 000000
2014-06-29 06:05:57,0.02,0.04,0.00,24.27,28.18,30.54,9.30,37.01,1007.84,2037.99,3486.97,3312.83,3606.17,499.41,489.78,11.54,0000 0000 0000 0000 000000
2014-06-29 06:10:58,0.02,0.05,0.00,24.33,28.21,30.58,9.41,37.17,1007.84,2037.92,3486.54,3312.12,3606.00,499.57,490.00,11.58,0000 0000 0000 0000 000000
2014-06-29 06:15:59,-0.03,0.05,0.00,24.35,28.25,30.61,9.45,37.33,1007.84,2037.61,3486.03,3312.00,3605.81,500.09,490.43,11.62,0000 0000 0000 0000 000000
2014-06-29 06:21:00,-0.02,0.04,0.00,24.37,28.28,30.63,9.43,37.24,1007.84,2037.15,3485.99,3311.99,3605.19,500.06,490.35,11.66,0000 0000 0000 0000 000000
2014-06-29 06:26:01,0.01,0.04,0.00,24.43,28.31,30.66,9.44,36.99,1007.84,2037.03,3485.76,3311.57,3605.00,500.10,490.01,11.70,0000 0000 0000 0000 000000
2014-06-29 06:31:02,0.02,0.04,0.00,24.46,28.34,30.70,9.44,37.20,1007.84,2037.00,3485.10,3311.06,3604.96,500.08,490.06,11.74,0000 0000 0000 0000 000000
2014-06-29 06:36:03,0.01,0.04,0.00,24.51,28.37,30.73,9.45,37.15,1007.83,2037.00,3485.03,3311.01,3604.59,500.26,490.15,11.79,0000 0000 0000 0000 000000
2014-06-29 06:41:04,0.00,0.05,0.00,24.54,28.41,30.76,9.43,36.95,1007.83,2037.00,3484.99,3311.00,3604.04,500.38,490.30,11.83,0000 0000 0000 0000 000000
2014-06-29 06:46:06,0.03,0.05,0.00,24.55,28.44,30.79,9.52,37.13,1007.83,2036.94,3484.45,3310.39,3603.98,500.58,490.38,11.87,0000 0000 0000 0000 000000
2014-06-29 06:51:07,-0.01,0.05,0.00,24.60,28.47,30.83,9.41,37.34,1007.84,2036.72,3484.02,3310.02,3603.57,499.88,489.68,11.91,0000 0000 0000 0000 000000
2014-06-29 06:56:07,-0.05,0.04,0.00,24.64,28.51,30.85,9.37,37.29,1007.84,2036.22,3483.99,3309.99,3603.04,499.62,489.50,11.95,0000 0000 0000 0000 000000
2014-06-29 07:01:08,-0.01,0.04,0.00,24.69,28.54,30.89,9.43,37.36,1007.87,2036.05,3483.85,3309.91,3602.98,500.29,490.11,12.00,0000 0000 0000 0000 000000
2014-06-29 07:06:09,0.05,0.05,0.00,24.71,28.57,30.91,9.37,37.46,1007.87,2036.01,3483.09,3309.17,3602.52,499.83,489.41,12.04,0000 0000 0000 0000 000000
2014-06-29 07:11:10,0.00,0.05,0.00,24.76,28.60,30.94,9.46,37.23,1007.85,2036.00,3482.99,3309.00,3602.02,500.19,489.69,12.08,0000 0000 0000 0000 000000
2014-06-29 07:16:11,0.01,0.05,0.00,24.79,28.63,30.97,9.38,37.26,1007.85,2035.99,3482.62,3308.88,3601.97,499.83,489.31,12.12,0000 0000 0000 0000 000000
2014-06-29 07:21:12,0.02,0.05,0.00,24.82,28.66,31.01,9.43,37.23,1007.84,2035.94,3482.10,3308.41,3601.57,499.96,489.34,12.16,0000 0000 0000 0000 000000
2014-06-29 07:26:13,-0.05,0.05,0.00,24.87,28.70,31.04,9.39,37.32,1007.84,2035.47,3482.01,3308.05,3601.07,499.88,489.37,12.21,0000 0000 0000 0000 000000
2014-06-29 07:31:14,-0.02,0.04,0.00,24.92,28.73,31.06,9.39,37.27,1007.83,2035.04,3481.83,3307.98,3600.95,500.29,489.57,12.25,0000 0000 0000 0000 000000
2014-06-29 07:36:16,0.03,0.05,0.00,24.96,28.76,31.10,9.46,37.17,1007.83,2035.00,3481.22,3307.76,3600.48,500.26,489.26,12.29,0000 0000 0000 0000 000000
2014-06-29 07:41:17,0.02,0.05,0.00,25.01,28.80,31.14,9.41,37.22,1007.83,2035.00,3481.00,3307.07,3600.01,499.95,489.01,12.33,0000 0000 0000 0000 000000
2014-06-29 07:46:18,0.00,0.05,0.00,25.04,28.83,31.16,9.35,37.17,1007.83,2034.98,3481.00,3307.00,3599.99,499.71,488.56,12.37,0000 0000 0000 0000 000000
2014-06-29 07:51:19,0.00,0.05,0.00,25.06,28.86,31.19,9.32,37.16,1007.84,2034.95,3480.91,3306.98,3599.77,500.36,489.34,12.41,0000 0000 0000 0000 000000
2014-06-29 07:56:21,-0.01,0.05,0.00,25.09,28.90,31.22,9.40,37.10,1007.83,2034.70,3480.23,3306.76,3599.13,500.05,489.07,12.46,0000 0000 0000 0000 000000
2014-06-29 08:01:21,-0.03,0.05,0.00,25.14,28.93,31.26,9.29,36.98,1007.83,2034.17,3480.00,3306.08,3599.00,500.00,488.89,12.50,0000 0000 0000 0000 000000
2014-06-29 08:06:22,-0.01,0.05,0.00,25.17,28.96,31.29,9.37,37.13,1007.83,2034.02,3479.97,3306.00,3598.93,499.93,488.74,12.54,0000 0000 0000 0000 000000
2014-06-29 08:11:23,0.01,0.05,0.00,25.25,29.00,31.32,9.39,37.09,1007.84,2034.00,3479.67,3305.98,3598.26,500.11,488.95,12.58,0000 0000 0000 0000 000000
2014-06-29 08:16:24,0.03,0.05,0.00,25.28,29.03,31.35,9.37,37.35,1007.84,2034.00,3479.05,3305.53,3598.00,500.04,488.83,12.62,0000 0000 0000 0000 000000
2014-06-29 08:21:26,0.01,0.05,0.00,25.33,29.06,31.38,9.49,37.74,1007.85,2033.98,3478.97,3305.02,3597.88,500.17,488.77,12.66,0000 0000 0000 0000 000000
2014-06-29 08:26:27,-0.01,0.05,0.00,25.36,29.10,31.42,9.42,37.16,1007.86,2033.78,3478.69,3304.98,3597.24,500.08,488.66,12.71,0000 0000 0000 0000 000000
2014-06-29 08:31:27,-0.03,0.05,0.00,25.40,29.14,31.46,9.37,37.35,1007.87,2033.16,3478.03,3304.54,3597.00,499.87,488.30,12.75,0000 0000 0000 0000 000000
2014-06-29 08:36:29,0.00,0.05,0.00,25.45,29.17,31.49,9.36,37.33,1007.91,2033.03,3478.00,3304.10,3596.91,500.07,488.48,12.79,0000 0000 0000 0000 000000
2014-06-29 08:41:30,0.01,0.05,0.00,25.48,29.21,31.54,9.34,37.73,1007.85,2033.00,3477.88,3304.00,3596.35,499.84,488.21,12.83,0000 0000 0000 0000 000000
2014-06-29 08:46:31,0.01,0.05,0.00,25.51,29.24,31.58,9.40,37.67,1007.83,2033.00,3477.27,3303.94,3596.01,500.04,488.22,12.87,0000 0000 0000 0000 000000
2014-06-29 08:51:32,0.02,0.05,0.00,25.54,29.28,31.62,9.32,37.46,1007.84,2032.98,3477.01,3303.35,3595.94,499.38,487.60,12.92,0000 0000 0000 0000 000000
2014-06-29 08:56:33,0.00,0.05,0.00,25.57,29.31,31.64,9.43,37.58,1007.84,2032.94,3476.97,3303.02,3595.35,500.31,488.38,12.96,0000 0000 0000 0000 000000
2014-06-29 09:01:34,-0.03,0.05,0.00,25.60,29.35,31.68,9.44,37.42,1007.85,2032.63,3476.60,3303.00,3595.02,500.25,488.24,13.00,0000 0000 0000 0000 000000
2014-06-29 09:06:35,-0.02,0.05,0.00,25.63,29.39,31.71,9.37,37.49,1007.85,2032.08,3476.02,3302.73,3594.98,499.78,487.79,13.04,0000 0000 0000 0000 000000
2014-06-29 09:11:36,0.02,0.05,0.00,25.65,29.42,31.75,9.38,37.45,1007.87,2032.01,3475.98,3302.21,3594.49,499.96,488.04,13.08,0000 0000 0000 0000 000000
2014-06-29 09:16:37,0.01,0.05,0.00,25.68,29.46,31.78,9.37,37.49,1007.91,2032.00,3475.47,3302.00,3594.01,500.19,488.23,13.12,0000 0000 0000 0000 000000
2014-06-29 09:21:39,0.01,0.05,0.00,25.70,29.49,31.82,9.36,37.94,1008.03,2032.00,3475.04,3301.92,3593.91,499.80,487.89,13.17,0000 0000 0000 0000 000000
2014-06-29 09:26:39,0.03,0.05,0.00,25.72,29.52,31.85,9.42,38.25,1008.22,2031.98,3474.98,3301.27,3593.28,499.94,488.01,13.21,0000 0000 0000 0000 000000
2014-06-29 09:31:41,0.00,0.05,0.00,25.73,29.56,31.89,9.35,38.39,1008.29,2031.90,3474.62,3301.01,3593.01,499.61,487.99,13.25,0000 0000 0000 0000 000000
2014-06-29 09:36:42,-0.06,0.05,0.00,25.74,29.59,31.92,9.40,38.50,1008.30,2031.43,3474.05,3300.99,3592.95,499.91,487.95,13.29,0000 0000 0000 0000 000000
2014-06-29 09:41:43,0.00,0.05,0.00,25.77,29.61,31.95,9.44,38.59,1008.31,2031.07,3474.00,3300.75,3592.38,499.98,488.06,13.33,0000 0000 0000 0000 000000
2014-06-29 09:46:44,0.01,0.05,0.00,25.81,29.65,31.97,9.37,38.28,1008.31,2031.00,3473.94,3300.10,3592.01,499.76,487.80,13.38,0000 0000 0000 0000 000000
2014-06-29 09:51:45,0.01,0.05,0.00,25.84,29.68,32.01,9.44,38.47,1008.31,2031.00,3473.24,3300.00,3591.95,499.82,487.72,13.42,0000 0000 0000 0000 000000
2014-06-29 09:56:47,0.00,0.05,0.00,25.89,29.71,32.03,9.37,38.33,1008.31,2030.98,3473.01,3299.99,3591.63,500.10,488.08,13.46,0000 0000 0000 0000 000000
2014-06-29 10:01:48,0.01,0.05,0.00,25.92,29.74,32.06,9.36,38.24,1008.32,2030.96,3473.00,3299.76,3591.08,500.11,488.04,13.50,0000 0000 0000 0000 000000
2014-06-29 10:06:49,-0.02,0.05,0.00,25.94,29.77,32.09,9.40,38.41,1008.32,2030.71,3472.76,3299.10,3591.00,499.78,487.44,13.54,0000 0000 0000 0000 000000
2014-06-29 10:11:50,-0.03,0.05,0.00,25.95,29.79,32.12,9.42,38.07,1008.33,2030.17,3472.16,3299.00,3590.86,500.32,488.16,13.58,0000 0000 0000 0000 000000
2014-06-29 10:16:51,0.00,0.05,0.00,26.00,29.82,32.15,9.51,38.13,1008.34,2030.02,3472.01,3298.97,3590.17,500.39,488.05,13.63,0000 0000 0000 0000 000000
2014-06-29 10:21:52,0.01,0.05,0.00,26.04,29.86,32.18,9.32,38.08,1008.33,2030.00,3471.99,3298.60,3590.00,499.83,487.60,13.67,0000 0000 0000 0000 000000
2014-06-29 10:26:53,0.02,0.05,0.00,26.11,29.89,32.22,9.46,38.17,1008.33,2030.00,3471.77,3298.08,3589.97,500.16,487.67,13.71,0000 0000 0000 0000 000000
2014-06-29 10:31:55,0.02,0.05,0.00,26.16,29.93,32.26,9.35,37.78,1008.32,2029.98,3471.25,3297.99,3589.38,499.87,487.28,13.75,0000 0000 0000 0000 000000
2014-06-29 10:36:56,-0.00,0.05,0.00,26.22,29.96,32.29,9.39,37.67,1008.33,2029.91,3471.00,3297.95,3589.01,499.99,487.26,13.79,0000 0000 0000 0000 000000
2014-06-29 10:41:57,-0.04,0.05,0.00,26.28,30.00,32.34,9.39,37.90,1008.32,2029.43,3470.93,3297.32,3588.88,500.20,487.23,13.84,0000 0000 0000 0000 000000
2014-06-29 10:46:58,0.01,0.05,0.00,26.36,30.04,32.38,9.33,37.90,1008.32,2029.03,3470.39,3297.00,3588.17,500.05,487.10,13.88,0000 0000 0000 0000 000000
2014-06-29 10:51:59,0.00,0.05,0.00,26.44,30.08,32.43,9.29,37.72,1008.32,2029.00,3470.02,3296.95,3588.00,500.05,487.20,13.92,0000 0000 0000 0000 000000
2014-06-29 10:56:59,0.02,0.05,0.00,26.51,30.12,32.49,9.38,37.64,1008.32,2029.00,3470.00,3296.38,3587.87,500.00,486.84,13.96,0000 0000 0000 0000 000000
2014-06-29 11:02:00,0.02,0.05,0.00,26.57,30.17,32.57,9.40,37.63,1008.32,2028.97,3469.87,3296.02,3587.12,500.24,487.06,14.00,0000 0000 0000 0000 000000
2014-06-29 11:07:02,-0.03,0.05,0.00,26.65,30.21,32.63,9.27,37.36,1008.32,2028.68,3469.16,3295.98,3586.98,499.95,486.56,14.04,0000 0000 0000 0000 000000
2014-06-29 11:12:03,-0.02,0.05,0.00,26.71,30.26,32.70,9.31,37.58,1008.32,2028.17,3469.00,3295.51,3586.60,499.87,486.66,14.09,0000 0000 0000 0000 000000
2014-06-29 11:17:04,0.01,0.05,0.00,26.75,30.31,32.72,9.37,37.30,1008.32,2028.01,3468.77,3295.02,3586.03,500.23,486.63,14.13,0000 0000 0000 0000 000000
2014-06-29 11:22:05,0.01,0.05,0.00,26.78,30.35,32.76,9.24,37.19,1008.33,2028.00,3468.12,3294.93,3585.89,499.47,485.97,14.17,0000 0000 0000 0000 000000
2014-06-29 11:27:06,0.03,0.05,0.00,26.84,30.39,32.79,9.35,37.15,1008.33,2027.99,3467.99,3294.33,3585.16,500.01,486.36,14.21,0000 0000 0000 0000 000000
2014-06-29 11:32:07,-0.01,0.05,0.00,26.88,30.44,32.82,9.30,36.92,1008.33,2027.78,3467.56,3294.00,3584.99,499.96,486.33,14.25,0000 0000 0000 0000 000000
2014-06-29 11:37:08,-0.04,0.05,0.00,26.91,30.48,32.85,9.29,36.98,1008.34,2027.18,3467.04,3293.83,3584.53,499.64,485.93,14.30,0000 0000 0000 0000 000000
2014-06-29 11:42:09,0.01,0.05,0.00,26.93,30.52,32.88,9.30,36.74,1008.32,2027.02,3466.96,3293.21,3584.03,500.21,486.41,14.34,0000 0000 0000 0000 000000
2014-06-29 11:47:10,0.01,0.05,0.00,26.94,30.56,32.91,9.33,36.74,1008.36,2027.00,3466.37,3293.00,3583.97,500.31,486.57,14.38,0000 0000 0000 0000 000000
2014-06-29 11:52:11,0.02,0.05,0.00,26.95,30.60,32.94,9.34,36.74,1008.42,2026.99,3466.00,3292.92,3583.43,500.08,486.25,14.42,0000 0000 0000 0000 000000
2014-06-29 11:57:12,0.01,0.05,0.00,26.95,30.63,32.98,9.34,36.73,1008.40,2026.97,3465.96,3292.47,3583.02,500.05,486.31,14.46,0000 0000 0000 0000 000000
2014-06-29 12:02:13,-0.00,0.05,0.00,26.94,30.66,33.00,9.43,36.72,1008.48,2026.75,3465.27,3292.04,3583.00,500.27,486.43,14.50,0000 0000 0000 0000 000000
2014-06-29 12:07:14,-0.04,0.05,0.00,26.91,30.69,33.03,9.31,36.67,1008.66,2026.28,3465.00,3292.00,3582.96,499.89,486.31,14.55,0000 0000 0000 0000 000000
2014-06-29 12:12:15,-0.01,0.05,0.00,26.90,30.72,33.05,9.30,36.66,1008.58,2026.05,3464.95,3291.89,3582.43,499.91,486.28,14.59,0000 0000 0000 0000 000000
2014-06-29 12:17:16,0.04,0.05,0.00,26.87,30.75,33.08,9.34,36.73,1008.64,2026.01,3464.27,3291.19,3582.01,500.10,486.58,14.63,0000 0000 0000 0000 000000
2014-06-29 12:22:17,0.01,0.05,0.00,26.86,30.77,33.10,9.40,36.70,1008.74,2026.00,3464.00,3291.01,3581.79,500.19,486.57,14.67,0000 0000 0000 0000 000000
2014-06-29 12:27:18,0.00,0.05,0.00,26.87,30.80,33.12,9.34,36.77,1008.78,2025.99,3463.96,3290.99,3581.15,500.19,486.61,14.71,0000 0000 0000 0000 000000
2014-06-29 12:32:19,0.01,0.05,0.00,26.88,30.82,33.15,9.29,36.73,1008.80,2025.98,3463.60,3290.90,3581.01,500.32,486.69,14.76,0000 0000 0000 0000 000000
2014-06-29 12:37:20,0.01,0.05,0.00,26.87,30.84,33.17,9.39,36.72,1008.80,2025.88,3463.06,3290.32,3580.99,500.14,486.66,14.80,0000 0000 0000 0000 000000
2014-06-29 12:42:21,-0.02,0.05,0.00,26.88,30.86,33.19,9.41,36.70,1008.79,2025.60,3463.00,3290.01,3580.74,500.47,486.97,14.84,0000 0000 0000 0000 000000
2014-06-29 12:47:22,-0.01,0.05,0.00,26.91,30.88,33.21,9.34,36.91,1008.79,2025.38,3462.94,3290.00,3580.23,500.02,486.38,14.88,0000 0000 0000 0000 000000
2014-06-29 12:52:23,-0.00,0.05,0.00,26.91,30.90,33.22,9.33,36.85,1008.65,2025.11,3462.41,3289.98,3580.01,500.09,486.37,14.92,0000 0000 0000 0000 000000
2014-06-29 12:57:24,-0.00,0.05,0.00,26.91,30.92,33.25,9.33,36.86,1008.60,2025.03,3462.03,3289.88,3580.00,500.21,486.73,14.96,0000 0000 0000 0000 000000
2014-06-29 13:02:25,0.01,0.05,0.00,26.91,30.95,33.27,9.30,36.83,1008.48,2025.00,3462.00,3289.30,3579.97,499.45,485.83,15.01,0000 0000 0000 0000 000000